| time (UTC) | temp F | wind direction | speed MPH | gust MPH | rain 1hr in | rain 24hr in | rain mn in | humidity % | barometer mb |
| 20260506023948 | 52 | 270 | 1.0 | 3.0 | 0.00 | 1.03 | 0.04 | 94 | 1007.0 |
| 20260506023448 | 52 | 250 | 1.0 | 3.0 | 0.00 | 1.03 | 0.04 | 94 | 1006.9 |
| 20260506022948 | 52 | 232 | 1.0 | 4.0 | 0.00 | 1.03 | 0.04 | 94 | 1007.0 |
| 20260506022448 | 52 | 217 | 0.0 | 4.0 | 0.00 | 1.03 | 0.04 | 94 | 1007.0 |
| 20260506021948 | 52 | 184 | 0.0 | 2.0 | 0.00 | 1.03 | 0.04 | 94 | 1007.1 |
| 20260506021448 | 52 | 186 | 0.0 | 2.0 | 0.00 | 1.03 | 0.04 | 94 | 1007.2 |
| 20260506020948 | 52 | 165 | 0.0 | 2.0 | 0.00 | 1.03 | 0.04 | 94 | 1007.1 |
| 20260506020448 | 52 | 133 | 0.0 | 1.0 | 0.00 | 1.03 | 0.04 | 94 | 1007.0 |
| 20260506015948 | 52 | 132 | 0.0 | 1.0 | 0.00 | 1.03 | 0.04 | 94 | 1007.0 |
| 20260506015448 | 52 | 134 | 0.0 | 0.0 | 0.00 | 1.03 | 0.04 | 94 | 1007.2 |
| 20260506014948 | 52 | 134 | 0.0 | 1.0 | 0.00 | 1.03 | 0.04 | 94 | 1007.2 |
| 20260506014449 | 52 | 134 | 0.0 | 1.0 | 0.00 | 1.03 | 0.04 | 94 | 1007.3 |
| 20260506013949 | 52 | 125 | 0.0 | 0.0 | 0.00 | 1.03 | 0.04 | 94 | 1007.3 |
| 20260506013449 | 52 | 125 | 0.0 | 0.0 | 0.00 | 1.03 | 0.04 | 94 | 1007.3 |
| 20260506012949 | 52 | 124 | 0.0 | 1.0 | 0.00 | 1.03 | 0.04 | 94 | 1007.4 |
| 20260506012449 | 52 | 127 | 0.0 | 1.0 | 0.00 | 1.03 | 0.04 | 94 | 1007.4 |
| 20260506011949 | 52 | 126 | 0.0 | 0.0 | 0.00 | 1.03 | 0.04 | 94 | 1007.4 |
| 20260506011449 | 52 | 123 | 0.0 | 1.0 | 0.00 | 1.03 | 0.04 | 94 | 1007.5 |
| 20260506010949 | 52 | 131 | 0.0 | 1.0 | 0.00 | 1.03 | 0.04 | 94 | 1007.5 |
| 20260506010449 | 52 | 135 | 0.0 | 1.0 | 0.00 | 1.03 | 0.04 | 94 | 1007.6 |
| 20260506005949 | 52 | 136 | 0.0 | 1.0 | 0.00 | 1.03 | 0.04 | 94 | 1007.5 |
| 20260506005449 | 52 | 138 | 0.0 | 1.0 | 0.00 | 1.03 | 0.04 | 94 | 1007.6 |
| 20260506004949 | 52 | 141 | 0.0 | 0.0 | 0.00 | 1.03 | 0.04 | 94 | 1007.6 |
| 20260506004449 | 52 | 102 | 0.0 | 1.0 | 0.00 | 1.03 | 0.04 | 94 | 1007.7 |
| 20260506003949 | 52 | 101 | 0.0 | 1.0 | 0.00 | 1.03 | 0.04 | 94 | 1007.7 |
| 20260506003449 | 52 | 101 | 0.0 | 2.0 | 0.00 | 1.03 | 0.04 | 94 | 1007.6 |
| 20260506002949 | 52 | 113 | 0.0 | 0.0 | 0.00 | 1.03 | 0.04 | 94 | 1007.8 |
| 20260506002449 | 52 | 113 | 0.0 | 0.0 | 0.00 | 1.03 | 0.04 | 94 | 1007.9 |
| 20260506001949 | 52 | 113 | 0.0 | 0.0 | 0.00 | 1.03 | 0.04 | 94 | 1007.8 |
| 20260506001449 | 52 | 113 | 0.0 | 0.0 | 0.00 | 1.03 | 0.04 | 94 | 1007.8 |
| 20260506000949 | 52 | 113 | 0.0 | 0.0 | 0.00 | 1.03 | 0.04 | 94 | 1007.9 |
| 20260506000449 | 52 | 113 | 0.0 | 0.0 | 0.00 | 1.03 | 0.04 | 94 | 1008.0 |
| 20260505235949 | 52 | 113 | 0.0 | 0.0 | 0.00 | 1.03 | 0.04 | 94 | 1008.1 |
| 20260505235449 | 52 | 113 | 0.0 | 0.0 | 0.00 | 1.03 | 0.04 | 94 | 1008.3 |
| 20260505234949 | 52 | 113 | 0.0 | 0.0 | 0.00 | 1.03 | 0.04 | 94 | 1008.3 |
| 20260505234449 | 52 | 113 | 0.0 | 1.0 | 0.00 | 1.03 | 0.04 | 94 | 1008.2 |
| 20260505233949 | 52 | 113 | 0.0 | 1.0 | 0.00 | 1.03 | 0.04 | 94 | 1008.1 |
| 20260505233449 | 52 | 110 | 0.0 | 0.0 | 0.00 | 1.03 | 0.04 | 94 | 1008.3 |
| 20260505232949 | 52 | 103 | 0.0 | 0.0 | 0.00 | 1.03 | 0.04 | 94 | 1008.4 |
| 20260505232449 | 52 | 103 | 0.0 | 2.0 | 0.01 | 1.03 | 0.04 | 94 | 1008.3 |
| 20260505231949 | 52 | 190 | 0.0 | 3.0 | 0.01 | 1.03 | 0.04 | 94 | 1008.4 |
| 20260505231449 | 52 | 245 | 0.0 | 1.0 | 0.02 | 1.03 | 0.04 | 94 | 1008.4 |
| 20260505230949 | 52 | 132 | 0.0 | 1.0 | 0.02 | 1.03 | 0.04 | 93 | 1008.3 |
| 20260505230449 | 52 | 162 | 0.0 | 1.0 | 0.03 | 1.03 | 0.04 | 94 | 1008.3 |
| 20260505225949 | 52 | 224 | 0.0 | 2.0 | 0.04 | 1.03 | 0.04 | 94 | 1008.2 |
| 20260505225449 | 52 | 145 | 0.0 | 0.0 | 0.06 | 1.03 | 0.04 | 93 | 1008.2 |
| 20260505224949 | 52 | 151 | 0.0 | 0.0 | 0.08 | 1.03 | 0.04 | 93 | 1008.2 |
| 20260505224449 | 52 | 151 | 0.0 | 1.0 | 0.11 | 1.03 | 0.04 | 93 | 1008.2 |
| 20260505223949 | 52 | 146 | 1.0 | 2.0 | 0.15 | 1.03 | 0.04 | 93 | 1008.2 |
| 20260505223449 | 52 | 231 | 1.0 | 3.0 | 0.21 | 1.03 | 0.04 | 93 | 1008.2 |
| 20260505222949 | 52 | 212 | 1.0 | 3.0 | 0.24 | 1.03 | 0.04 | 93 | 1008.2 |
| 20260505222449 | 52 | 56 | 2.0 | 3.0 | 0.24 | 1.02 | 0.03 | 93 | 1007.8 |
| 20260505221949 | 52 | 19 | 2.0 | 4.0 | 0.25 | 1.02 | 0.03 | 93 | 1007.7 |
| 20260505221449 | 52 | 34 | 2.0 | 3.0 | 0.25 | 1.01 | 0.02 | 93 | 1007.8 |
| 20260505220949 | 52 | 42 | 1.0 | 3.0 | 0.26 | 1.01 | 0.02 | 93 | 1007.9 |
| 20260505220449 | 52 | 48 | 0.0 | 2.0 | 0.28 | 1.00 | 0.01 | 93 | 1008.1 |
| 20260505215949 | 52 | 51 | 1.0 | 2.0 | 0.30 | 0.99 | 0.99 | 93 | 1008.1 |
| 20260505215449 | 52 | 46 | 1.0 | 3.0 | 0.30 | 0.97 | 0.97 | 93 | 1008.1 |
| 20260505214949 | 52 | 36 | 1.0 | 2.0 | 0.32 | 0.95 | 0.95 | 93 | 1008.4 |
| 20260505214449 | 52 | 24 | 1.0 | 3.0 | 0.34 | 0.92 | 0.92 | 93 | 1008.7 |
| 20260505213949 | 52 | 29 | 0.0 | 2.0 | 0.36 | 0.88 | 0.88 | 93 | 1008.9 |
| 20260505213449 | 53 | 118 | 0.0 | 0.0 | 0.37 | 0.82 | 0.82 | 93 | 1009.2 |
| 20260505212949 | 53 | 119 | 0.0 | 0.0 | 0.39 | 0.79 | 0.79 | 93 | 1009.1 |
| 20260505212449 | 53 | 29 | 0.0 | 1.0 | 0.42 | 0.78 | 0.78 | 93 | 1009.1 |
| 20260505211949 | 53 | 274 | 0.0 | 0.0 | 0.47 | 0.77 | 0.77 | 93 | 1009.4 |
| 20260505211449 | 53 | 262 | 0.0 | 3.0 | 0.48 | 0.76 | 0.76 | 93 | 1009.5 |
| 20260505210949 | 53 | 263 | 1.0 | 3.0 | 0.49 | 0.75 | 0.75 | 93 | 1009.5 |
| 20260505210449 | 53 | 188 | 1.0 | 4.0 | 0.47 | 0.72 | 0.72 | 93 | 1009.5 |
| 20260505205949 | 53 | 253 | 1.0 | 4.0 | 0.46 | 0.69 | 0.69 | 93 | 1009.6 |
| 20260505205449 | 53 | 223 | 3.0 | 5.0 | 0.46 | 0.67 | 0.67 | 93 | 1009.6 |
| 20260505204949 | 53 | 286 | 5.0 | 9.0 | 0.46 | 0.63 | 0.63 | 93 | 1009.6 |
| 20260505204449 | 53 | 248 | 5.0 | 12.0 | 0.42 | 0.58 | 0.58 | 93 | 1009.6 |
| 20260505203949 | 54 | 295 | 4.0 | 21.0 | 0.36 | 0.52 | 0.52 | 93 | 1009.5 |
| 20260505203449 | 54 | 224 | 4.0 | 11.0 | 0.29 | 0.45 | 0.45 | 93 | 1009.3 |
| 20260505202950 | 54 | 253 | 3.0 | 12.0 | 0.24 | 0.40 | 0.40 | 93 | 1009.3 |
| 20260505202449 | 55 | 176 | 3.0 | 4.0 | 0.20 | 0.36 | 0.36 | 93 | 1009.2 |
| 20260505201949 | 55 | 282 | 3.0 | 10.0 | 0.14 | 0.30 | 0.30 | 93 | 1009.3 |
| 20260505201449 | 56 | 214 | 2.0 | 5.0 | 0.12 | 0.28 | 0.28 | 93 | 1009.0 |
| 20260505200949 | 55 | 70 | 3.0 | 7.0 | 0.10 | 0.26 | 0.26 | 93 | 1008.4 |
| 20260505200449 | 55 | 34 | 4.0 | 8.0 | 0.10 | 0.25 | 0.25 | 93 | 1007.6 |
| 20260505195949 | 55 | 22 | 2.0 | 8.0 | 0.08 | 0.23 | 0.23 | 93 | 1007.6 |
| 20260505195449 | 55 | 21 | 1.0 | 4.0 | 0.07 | 0.21 | 0.21 | 93 | 1007.7 |
| 20260505194949 | 55 | 91 | 1.0 | 6.0 | 0.04 | 0.17 | 0.17 | 93 | 1007.9 |
| 20260505194449 | 55 | 107 | 2.0 | 3.0 | 0.03 | 0.16 | 0.16 | 93 | 1007.9 |
| 20260505193949 | 55 | 68 | 3.0 | 6.0 | 0.04 | 0.16 | 0.16 | 93 | 1007.7 |
| 20260505193449 | 55 | 51 | 4.0 | 6.0 | 0.07 | 0.16 | 0.16 | 93 | 1007.7 |
| 20260505192949 | 55 | 29 | 5.0 | 8.0 | 0.09 | 0.16 | 0.16 | 92 | 1007.7 |
| 20260505192450 | 55 | 9 | 6.0 | 8.0 | 0.10 | 0.16 | 0.16 | 92 | 1007.5 |
| 20260505191950 | 56 | 46 | 5.0 | 11.0 | 0.12 | 0.16 | 0.16 | 92 | 1007.6 |
| 20260505191449 | 56 | 71 | 3.0 | 8.0 | 0.12 | 0.16 | 0.16 | 92 | 1007.7 |
| 20260505190950 | 56 | 30 | 3.0 | 5.0 | 0.12 | 0.16 | 0.16 | 92 | 1007.8 |
| 20260505190450 | 56 | 29 | 3.0 | 7.0 | 0.11 | 0.15 | 0.15 | 92 | 1007.8 |
| 20260505185950 | 56 | 20 | 3.0 | 8.0 | 0.11 | 0.15 | 0.15 | 92 | 1007.6 |
| 20260505185450 | 56 | 2 | 4.0 | 5.0 | 0.10 | 0.14 | 0.14 | 92 | 1007.7 |
| 20260505184950 | 56 | 51 | 4.0 | 9.0 | 0.09 | 0.13 | 0.13 | 91 | 1007.7 |
| 20260505184450 | 56 | 36 | 4.0 | 9.0 | 0.09 | 0.13 | 0.13 | 91 | 1007.7 |
| 20260505183950 | 57 | 75 | 4.0 | 9.0 | 0.08 | 0.12 | 0.12 | 90 | 1007.7 |
| 20260505183450 | 58 | 39 | 1.0 | 8.0 | 0.05 | 0.09 | 0.09 | 87 | 1007.9 |
| 20260505182950 | 59 | 296 | 0.0 | 2.0 | 0.03 | 0.07 | 0.07 | 86 | 1008.2 |
| 20260505182450 | 59 | 21 | 1.0 | 0.0 | 0.02 | 0.06 | 0.06 | 84 | 1008.2 |
| 20260505181950 | 59 | 21 | 1.0 | 3.0 | 0.01 | 0.04 | 0.04 | 84 | 1008.0 |
| 20260505181450 | 59 | 54 | 2.0 | 5.0 | 0.01 | 0.04 | 0.04 | 84 | 1007.9 |
| 20260505180950 | 59 | 41 | 3.0 | 5.0 | 0.01 | 0.04 | 0.04 | 84 | 1007.8 |
| 20260505180450 | 59 | 56 | 3.0 | 8.0 | 0.01 | 0.04 | 0.04 | 83 | 1007.7 |
| 20260505175950 | 59 | 51 | 3.0 | 7.0 | 0.01 | 0.04 | 0.04 | 84 | 1007.6 |
| 20260505175450 | 59 | 32 | 4.0 | 7.0 | 0.01 | 0.04 | 0.04 | 84 | 1007.5 |
| 20260505174950 | 59 | 48 | 4.0 | 7.0 | 0.01 | 0.04 | 0.04 | 83 | 1007.6 |
| 20260505174450 | 59 | 59 | 5.0 | 8.0 | 0.01 | 0.04 | 0.04 | 83 | 1007.6 |
| 20260505173950 | 59 | 31 | 6.0 | 11.0 | 0.01 | 0.04 | 0.04 | 83 | 1007.4 |
| 20260505173450 | 60 | 16 | 6.0 | 11.0 | 0.01 | 0.04 | 0.04 | 82 | 1007.4 |
| 20260505172950 | 60 | 40 | 5.0 | 12.0 | 0.01 | 0.04 | 0.04 | 81 | 1007.6 |
| 20260505172450 | 60 | 39 | 4.0 | 9.0 | 0.01 | 0.04 | 0.04 | 81 | 1007.9 |
| 20260505171950 | 61 | 55 | 4.0 | 7.0 | 0.00 | 0.03 | 0.03 | 80 | 1008.2 |
| 20260505171450 | 61 | 49 | 4.0 | 7.0 | 0.00 | 0.03 | 0.03 | 79 | 1008.5 |
| 20260505170950 | 61 | 55 | 4.0 | 6.0 | 0.00 | 0.03 | 0.03 | 79 | 1008.7 |
| 20260505170450 | 61 | 58 | 3.0 | 6.0 | 0.00 | 0.03 | 0.03 | 78 | 1008.7 |
| 20260505165950 | 62 | 51 | 2.0 | 6.0 | 0.00 | 0.03 | 0.03 | 77 | 1008.5 |
| 20260505165450 | 62 | 29 | 2.0 | 6.0 | 0.00 | 0.03 | 0.03 | 78 | 1008.6 |
| 20260505164950 | 62 | 76 | 2.0 | 5.0 | 0.00 | 0.03 | 0.03 | 78 | 1008.7 |
| 20260505164450 | 62 | 34 | 3.0 | 6.0 | 0.00 | 0.03 | 0.03 | 78 | 1008.5 |
| 20260505163950 | 62 | 55 | 3.0 | 6.0 | 0.00 | 0.03 | 0.03 | 78 | 1008.5 |
| 20260505163450 | 62 | 38 | 3.0 | 7.0 | 0.00 | 0.03 | 0.03 | 77 | 1008.5 |
| 20260505162950 | 62 | 23 | 4.0 | 9.0 | 0.00 | 0.03 | 0.03 | 77 | 1008.5 |
| 20260505162450 | 62 | 63 | 4.0 | 9.0 | 0.00 | 0.03 | 0.03 | 77 | 1008.5 |
| 20260505161950 | 62 | 351 | 4.0 | 6.0 | 0.00 | 0.03 | 0.03 | 77 | 1008.7 |
| 20260505161450 | 62 | 30 | 4.0 | 9.0 | 0.00 | 0.03 | 0.03 | 76 | 1008.8 |
| 20260505160950 | 63 | 20 | 4.0 | 9.0 | 0.00 | 0.03 | 0.03 | 76 | 1008.7 |
| 20260505160450 | 63 | 68 | 4.0 | 7.0 | 0.00 | 0.03 | 0.03 | 76 | 1008.8 |
| 20260505152950 | 63 | 11 | 5.0 | 7.0 | 0.00 | 0.03 | 0.03 | 75 | 1008.9 |
| 20260505152450 | 63 | 18 | 5.0 | 9.0 | 0.00 | 0.03 | 0.03 | 75 | 1009.0 |
| 20260505151950 | 63 | 58 | 5.0 | 8.0 | 0.00 | 0.03 | 0.03 | 74 | 1009.1 |
| 20260505151450 | 63 | 28 | 5.0 | 8.0 | 0.00 | 0.03 | 0.03 | 75 | 1009.1 |
| 20260505150950 | 63 | 43 | 5.0 | 8.0 | 0.00 | 0.03 | 0.03 | 74 | 1009.1 |
| 20260505150450 | 63 | 54 | 4.0 | 8.0 | 0.00 | 0.03 | 0.03 | 74 | 1009.3 |
| 20260505140450 | 64 | 46 | 7.0 | 14.0 | 0.00 | 0.03 | 0.03 | 72 | 1009.7 |
| 20260505124950 | 62 | 340 | 5.0 | 12.0 | 0.00 | 0.03 | 0.03 | 80 | 1009.9 |
| 20260505124450 | 61 | 21 | 5.0 | 12.0 | 0.00 | 0.03 | 0.03 | 81 | 1009.9 |
| 20260505123950 | 61 | 31 | 4.0 | 10.0 | 0.00 | 0.03 | 0.03 | 81 | 1009.9 |
| 20260505123450 | 61 | 43 | 3.0 | 10.0 | 0.00 | 0.03 | 0.03 | 81 | 1010.0 |
| 20260505122950 | 62 | 6 | 3.0 | 9.0 | 0.00 | 0.03 | 0.03 | 82 | 1010.0 |
| 20260505122450 | 62 | 49 | 3.0 | 6.0 | 0.00 | 0.03 | 0.03 | 81 | 1010.1 |
| 20260505121950 | 62 | 34 | 3.0 | 8.0 | 0.00 | 0.03 | 0.03 | 81 | 1010.2 |
| 20260505121450 | 62 | 51 | 3.0 | 8.0 | 0.00 | 0.03 | 0.03 | 80 | 1010.2 |
| 20260505120951 | 62 | 51 | 3.0 | 8.0 | 0.00 | 0.03 | 0.03 | 81 | 1010.1 |
| 20260505120451 | 62 | 16 | 4.0 | 7.0 | 0.00 | 0.03 | 0.03 | 80 | 1010.1 |
| 20260505115950 | 62 | 43 | 3.0 | 9.0 | 0.00 | 0.03 | 0.03 | 79 | 1010.2 |
| 20260505115451 | 63 | 41 | 1.0 | 6.0 | 0.00 | 0.03 | 0.03 | 79 | 1010.2 |
| 20260505114951 | 62 | 13 | 2.0 | 5.0 | 0.00 | 0.03 | 0.03 | 80 | 1010.2 |
| 20260505114451 | 62 | 30 | 3.0 | 8.0 | 0.00 | 0.03 | 0.03 | 81 | 1010.2 |
| 20260505113951 | 61 | 19 | 3.0 | 8.0 | 0.00 | 0.03 | 0.03 | 82 | 1010.2 |
| 20260505113451 | 61 | 27 | 3.0 | 10.0 | 0.00 | 0.03 | 0.03 | 81 | 1010.2 |
| 20260505112951 | 61 | 18 | 2.0 | 8.0 | 0.00 | 0.03 | 0.03 | 81 | 1010.2 |
| 20260505112451 | 61 | 334 | 2.0 | 6.0 | 0.00 | 0.03 | 0.03 | 82 | 1010.2 |
| 20260505111951 | 61 | 316 | 2.0 | 6.0 | 0.00 | 0.03 | 0.03 | 81 | 1010.3 |
| 20260505111451 | 61 | 311 | 1.0 | 7.0 | 0.00 | 0.03 | 0.03 | 81 | 1010.3 |
| 20260505110951 | 61 | 29 | 1.0 | 2.0 | 0.00 | 0.03 | 0.03 | 82 | 1010.4 |
| 20260505110451 | 61 | 272 | 1.0 | 6.0 | 0.00 | 0.03 | 0.03 | 81 | 1010.5 |
| 20260505101951 | 60 | 285 | 0.0 | 2.0 | 0.00 | 0.03 | 0.03 | 84 | 1010.7 |
| 20260505101451 | 60 | 233 | 0.0 | 2.0 | 0.00 | 0.03 | 0.03 | 84 | 1010.6 |
| 20260505100951 | 60 | 280 | 0.0 | 2.0 | 0.00 | 0.03 | 0.03 | 84 | 1010.7 |
| 20260505100451 | 60 | 262 | 0.0 | 1.0 | 0.00 | 0.03 | 0.03 | 84 | 1010.7 |
| 20260505095951 | 60 | 8 | 1.0 | 3.0 | 0.00 | 0.03 | 0.03 | 84 | 1010.6 |
| 20260505095451 | 60 | 358 | 1.0 | 4.0 | 0.00 | 0.03 | 0.03 | 83 | 1010.8 |
| 20260505094951 | 60 | 27 | 1.0 | 5.0 | 0.00 | 0.03 | 0.03 | 83 | 1010.6 |
| 20260505094451 | 60 | 37 | 1.0 | 4.0 | 0.00 | 0.03 | 0.03 | 83 | 1010.8 |
| 20260505093951 | 61 | 18 | 2.0 | 5.0 | 0.00 | 0.03 | 0.03 | 82 | 1010.8 |
| 20260505093451 | 61 | 353 | 1.0 | 5.0 | 0.00 | 0.03 | 0.03 | 82 | 1010.8 |
| 20260505092951 | 61 | 28 | 0.0 | 4.0 | 0.00 | 0.03 | 0.03 | 82 | 1010.9 |
| 20260505092451 | 61 | 228 | 1.0 | 3.0 | 0.00 | 0.03 | 0.03 | 82 | 1010.9 |
| 20260505091951 | 61 | 25 | 2.0 | 4.0 | 0.00 | 0.03 | 0.03 | 83 | 1010.9 |
| 20260505091451 | 61 | 34 | 1.0 | 5.0 | 0.00 | 0.03 | 0.03 | 81 | 1011.3 |
| 20260505090951 | 61 | 18 | 1.0 | 6.0 | 0.00 | 0.03 | 0.03 | 82 | 1011.0 |
| 20260505090451 | 61 | 328 | 1.0 | 3.0 | 0.00 | 0.03 | 0.03 | 82 | 1010.8 |
| 20260505085951 | 60 | 48 | 1.0 | 4.0 | 0.00 | 0.03 | 0.03 | 83 | 1011.0 |
| 20260505085451 | 60 | 120 | 1.0 | 3.0 | 0.00 | 0.03 | 0.03 | 83 | 1011.1 |
| 20260505084951 | 60 | 122 | 0.0 | 3.0 | 0.00 | 0.03 | 0.03 | 84 | 1011.1 |
| 20260505084451 | 59 | 124 | 0.0 | 2.0 | 0.00 | 0.03 | 0.03 | 84 | 1011.2 |
| 20260505083951 | 59 | 126 | 0.0 | 1.0 | 0.00 | 0.03 | 0.03 | 84 | 1011.2 |
| 20260505083451 | 59 | 126 | 0.0 | 2.0 | 0.00 | 0.03 | 0.03 | 84 | 1011.2 |
| 20260505082951 | 59 | 126 | 0.0 | 1.0 | 0.00 | 0.03 | 0.03 | 84 | 1011.2 |
| 20260505082451 | 59 | 125 | 0.0 | 2.0 | 0.00 | 0.03 | 0.03 | 84 | 1011.2 |
| 20260505081951 | 59 | 165 | 0.0 | 0.0 | 0.00 | 0.03 | 0.03 | 85 | 1011.2 |
| 20260505081451 | 58 | 134 | 0.0 | 1.0 | 0.00 | 0.03 | 0.03 | 85 | 1011.1 |
| 20260505080951 | 58 | 134 | 0.0 | 1.0 | 0.00 | 0.03 | 0.03 | 85 | 1011.1 |
| 20260505080451 | 58 | 132 | 0.0 | 1.0 | 0.00 | 0.03 | 0.03 | 86 | 1011.2 |
| 20260505075951 | 58 | 134 | 0.0 | 2.0 | 0.00 | 0.03 | 0.03 | 86 | 1011.2 |
| 20260505075451 | 58 | 149 | 0.0 | 1.0 | 0.00 | 0.03 | 0.03 | 87 | 1011.2 |
| 20260505074951 | 57 | 160 | 0.0 | 0.0 | 0.00 | 0.03 | 0.03 | 88 | 1011.3 |
| 20260505074451 | 57 | 163 | 0.0 | 1.0 | 0.00 | 0.03 | 0.03 | 88 | 1011.3 |
| 20260505073951 | 57 | 135 | 0.0 | 1.0 | 0.00 | 0.03 | 0.03 | 89 | 1011.4 |
| 20260505073451 | 56 | 130 | 1.0 | 2.0 | 0.00 | 0.03 | 0.03 | 90 | 1011.3 |
| 20260505072951 | 56 | 128 | 1.0 | 3.0 | 0.00 | 0.03 | 0.03 | 90 | 1011.3 |
| 20260505072451 | 56 | 176 | 0.0 | 2.0 | 0.00 | 0.03 | 0.03 | 90 | 1011.3 |
| 20260505071951 | 56 | 188 | 0.0 | 2.0 | 0.00 | 0.03 | 0.03 | 90 | 1011.2 |
| 20260505071451 | 56 | 187 | 0.0 | 1.0 | 0.00 | 0.03 | 0.03 | 90 | 1011.2 |
| 20260505070951 | 56 | 217 | 0.0 | 1.0 | 0.00 | 0.03 | 0.03 | 89 | 1011.3 |
| 20260505070451 | 56 | 245 | 0.0 | 0.0 | 0.00 | 0.03 | 0.03 | 90 | 1011.2 |
| 20260505065951 | 56 | 245 | 0.0 | 0.0 | 0.00 | 0.03 | 0.03 | 90 | 1011.3 |
| 20260505065451 | 56 | 245 | 0.0 | 1.0 | 0.00 | 0.03 | 0.03 | 90 | 1011.4 |
| 20260505064951 | 56 | 245 | 0.0 | 0.0 | 0.00 | 0.03 | 0.03 | 90 | 1011.4 |
| 20260505064451 | 56 | 252 | 0.0 | 1.0 | 0.00 | 0.03 | 0.03 | 90 | 1011.4 |
| 20260505063951 | 56 | 264 | 0.0 | 1.0 | 0.00 | 0.03 | 0.03 | 90 | 1011.4 |
| 20260505063451 | 56 | 236 | 0.0 | 1.0 | 0.00 | 0.03 | 0.03 | 90 | 1011.4 |
| 20260505062951 | 56 | 236 | 0.0 | 0.0 | 0.00 | 0.03 | 0.03 | 90 | 1011.5 |
| 20260505062451 | 55 | 236 | 0.0 | 0.0 | 0.00 | 0.03 | 0.03 | 90 | 1011.5 |
| 20260505061951 | 55 | 236 | 0.0 | 1.0 | 0.00 | 0.03 | 0.03 | 90 | 1011.5 |
| 20260505061451 | 55 | 236 | 0.0 | 1.0 | 0.00 | 0.03 | 0.03 | 90 | 1011.6 |
| 20260505060951 | 55 | 266 | 0.0 | 1.0 | 0.00 | 0.03 | 0.03 | 90 | 1011.7 |
| 20260505060451 | 55 | 238 | 0.0 | 1.0 | 0.00 | 0.03 | 0.03 | 90 | 1011.8 |
| 20260505055951 | 55 | 245 | 1.0 | 2.0 | 0.00 | 0.03 | 0.03 | 90 | 1012.0 |
| 20260505055451 | 55 | 242 | 0.0 | 3.0 | 0.00 | 0.03 | 0.03 | 90 | 1012.0 |
| 20260505054951 | 55 | 245 | 0.0 | 2.0 | 0.00 | 0.03 | 0.03 | 90 | 1011.9 |
| 20260505054451 | 55 | 235 | 0.0 | 1.0 | 0.00 | 0.03 | 0.03 | 90 | 1011.9 |
| 20260505053951 | 55 | 241 | 0.0 | 1.0 | 0.00 | 0.03 | 0.03 | 90 | 1011.8 |
| 20260505053451 | 55 | 241 | 0.0 | 1.0 | 0.00 | 0.03 | 0.03 | 90 | 1011.9 |
| 20260505052952 | 55 | 238 | 0.0 | 1.0 | 0.00 | 0.03 | 0.03 | 90 | 1011.9 |
| 20260505052452 | 55 | 237 | 0.0 | 1.0 | 0.00 | 0.03 | 0.03 | 90 | 1011.8 |
| 20260505051952 | 55 | 242 | 0.0 | 1.0 | 0.01 | 0.03 | 0.03 | 90 | 1011.9 |
| 20260505051452 | 55 | 250 | 0.0 | 2.0 | 0.01 | 0.03 | 0.03 | 89 | 1011.9 |
| 20260505050952 | 55 | 240 | 0.0 | 1.0 | 0.02 | 0.03 | 0.03 | 89 | 1011.9 |
| 20260505050452 | 55 | 226 | 0.0 | 1.0 | 0.03 | 0.03 | 0.03 | 89 | 1011.8 |
| 20260505041452 | 55 | 248 | 1.0 | 2.0 | 0.02 | 0.02 | 0.02 | 87 | 1011.7 |
| 20260505040952 | 55 | 252 | 0.0 | 4.0 | 0.01 | 0.01 | 0.01 | 87 | 1011.7 |
| 20260505040452 | 56 | 244 | 0.0 | 1.0 | 0.00 | 0.00 | 0.00 | 86 | 1011.8 |
| 20260505035952 | 56 | 240 | 0.0 | 1.0 | 0.00 | 0.00 | 0.00 | 85 | 1011.6 |
| 20260505035452 | 56 | 241 | 0.0 | 1.0 | 0.00 | 0.00 | 0.00 | 85 | 1011.6 |
| 20260505034952 | 56 | 243 | 0.0 | 0.0 | 0.00 | 0.00 | 0.00 | 84 | 1011.7 |
| 20260505034452 | 56 | 241 | 0.0 | 1.0 | 0.00 | 0.00 | 0.00 | 84 | 1011.7 |
| 20260505033952 | 56 | 241 | 0.0 | 1.0 | 0.00 | 0.00 | 0.00 | 84 | 1011.7 |
| 20260505033452 | 56 | 243 | 0.0 | 1.0 | 0.00 | 0.00 | 0.00 | 84 | 1011.7 |
| 20260505032952 | 56 | 245 | 0.0 | 1.0 | 0.00 | 0.00 | 0.00 | 84 | 1011.6 |
| 20260505032452 | 56 | 247 | 0.0 | 1.0 | 0.00 | 0.00 | 0.00 | 84 | 1011.7 |
| 20260505031952 | 55 | 247 | 0.0 | 0.0 | 0.00 | 0.00 | 0.00 | 84 | 1011.7 |
| 20260505031452 | 55 | 247 | 0.0 | 1.0 | 0.00 | 0.00 | 0.00 | 84 | 1011.8 |
| 20260505030952 | 55 | 247 | 0.0 | 0.0 | 0.00 | 0.00 | 0.00 | 84 | 1011.8 |
| 20260505030452 | 55 | 247 | 0.0 | 0.0 | 0.00 | 0.00 | 0.00 | 84 | 1011.8 |
| 20260505025952 | 55 | 248 | 0.0 | 0.0 | 0.00 | 0.00 | 0.00 | 83 | 1011.8 |
| 20260505025452 | 55 | 248 | 0.0 | 0.0 | 0.00 | 0.00 | 0.00 | 83 | 1011.9 |
| 20260505024952 | 55 | 248 | 0.0 | 0.0 | 0.00 | 0.00 | 0.00 | 83 | 1011.9 |
| 20260505024452 | 55 | 248 | 0.0 | 0.0 | 0.00 | 0.00 | 0.00 | 82 | 1012.0 |